[[{"header":{"parameterUnit":"m.s-1","parameterCategory":1,"la1":30.2991,"la2":30.254,"lo1":-89.0895,"lo2":-89.0444,"dy":0.0017,"dx":0.0017,"nx":28,"ny":28,"refTime":"2024-03-28T21:00:00:Z","depth":0,"parameterNumber":2,"parameterNumberName":"U-component_of_WINDS"},"data":[0,0,0,0,0,0,0,0,0,0,0,0,0,0,0,0,0,0,0,0,0,0,0,0,0,0,0,0,0,0,0,0,0,0,0,0,0,0,0,0,0,0,0,0,0,0,0,0,0,0,0,0,0,0,0,0,0,0,-2.1104,-2.1104,0,-2.1139,-2.1139,-2.114,-2.1106,-2.1104,-2.1103,-2.1102,-2.1139,-2.1141,-2.1143,0,0,0,0,0,0,0,0,0,0,0,0,0,-2.1008,-2.101,-2.1104,-2.1104,-2.1104,-2.1139,-2.1139,-2.114,-2.1106,-2.1104,-2.1103,-2.1101,-2.1138,-2.1141,-2.1143,0,0,0,0,0,0,0,0,0,0,0,0,0,-2.1047,-2.1011,-2.1103,-2.1092,-2.1091,-2.1139,-2.1139,-2.114,-2.1106,-2.1104,-2.1102,-2.11,-2.1137,-2.114,-2.1144,-2.1205,0,0,-2.1154,-2.1155,0,0,0,0,0,0,0,0,-2.1045,-2.1051,-2.1093,-2.1093,-2.1092,-2.1116,-2.1119,-2.1162,-2.1107,-2.1101,-2.1102,-2.11,-2.1133,-2.1136,-2.1147,-2.1207,-2.1208,-2.1154,-2.1156,-2.1158,-2.1159,0,0,0,0,0,0,0,-2.1042,-2.1049,-2.1117,-2.1094,-2.1093,-2.1085,-2.1088,-2.1127,-2.1128,-2.1101,-2.1099,-2.1103,-2.1132,-2.1144,-2.1148,-2.1209,-2.1154,-2.1157,-2.1159,-2.1161,-2.1319,-2.1322,0,0,0,0,0,0,-2.1041,-2.1047,-2.1116,-2.1119,-2.1063,-2.1088,-2.1092,-2.111,-2.1127,-2.1128,-2.1105,-2.1102,-2.114,-2.1144,-2.1149,-2.1221,-2.1158,-2.1161,-2.1163,-2.1317,-2.132,-2.1322,0,0,0,0,0,0,-2.1039,-2.1047,-2.1115,-2.1082,-2.109,-2.1092,-2.1113,-2.1112,-2.1124,-2.113,-2.113,-2.1117,-2.1138,-2.1145,-2.1191,-2.1222,-2.1162,-2.1165,-2.1315,-2.1318,-2.1321,-2.1367,0,0,0,0,0,0,-2.1036,-2.1047,-2.107,-2.1083,-2.1092,-2.1156,-2.1115,-2.1114,-2.113,-2.1126,-2.1142,-2.1142,-2.1137,-2.1186,-2.1195,-2.1226,-2.1168,-2.1312,-2.1316,-2.132,-2.1362,-2.1371,-2.1378,0,0,0,0,0,-2.1033,-2.1082,-2.1071,-2.108,-2.1121,-2.1158,-2.1163,-2.1156,-2.1133,-2.1156,-2.116,-2.1142,-2.1218,-2.1191,-2.12,-2.1233,-2.131,-2.1315,-2.132,-2.1359,-2.1369,-2.1378,0,0,0,0,0,0,-2.1072,-2.1083,-2.1072,-2.1126,-2.1141,-2.1152,-2.1181,-2.1168,-2.119,-2.1185,-2.1176,-2.118,-2.1229,-2.1236,-2.1206,-2.1293,-2.126,-2.1267,-2.1286,-2.1297,-2.1305,-2.1302,-2.1171,0,0,0,0,0,-2.1087,-2.1116,-2.1124,-2.1171,-2.118,-2.1179,-2.1195,-2.1188,-2.1204,-2.121,-2.1218,-2.1234,-2.1261,-2.1279,-2.1305,-2.1363,-2.1366,-2.139,-2.1399,-2.1405,-2.1411,-2.1442,-2.1453,-2.1339,-2.1339,-2.1338,0,0,-2.1119,-2.1128,-2.1147,-2.1179,-2.119,-2.1221,-2.1185,-2.1219,-2.1241,-2.1216,-2.126,-2.1266,-2.1283,-2.1336,-2.1359,-2.1343,-2.1443,-2.1411,-2.1417,-2.1419,-2.1448,-2.1459,-2.1468,-2.1342,-2.1341,-2.1341,0,0,-2.1191,-2.1201,-2.1241,-2.1253,-2.127,-2.1269,-2.1279,-2.1292,-2.1295,-2.1339,-2.1321,-2.1348,-2.1395,-2.1408,-2.1421,-2.1499,-2.1483,-2.1507,-2.1549,-2.158,-2.1588,-2.1596,-2.1623,-2.1633,-2.1513,-2.1513,-2.1514,0,-2.1228,-2.1272,-2.1264,-2.1298,-2.1313,-2.1291,-2.1332,-2.1344,-2.1369,-2.138,-2.1361,-2.142,-2.143,-2.1485,-2.1504,-2.1516,-2.1526,-2.1505,-2.1588,-2.1596,-2.1603,-2.1629,-2.1639,-2.1516,-2.1516,-2.1516,-2.1515,0,-2.1316,-2.1348,-2.1378,-2.1402,-2.142,-2.1458,-2.1455,-2.1475,-2.1467,-2.1468,-2.1513,-2.1525,-2.1552,-2.1565,-2.1558,-2.1619,-2.1608,-2.1589,-2.1556,-2.1617,-2.1641,-2.165,-2.152,-2.1519,-2.1518,-2.1518,0,0,-2.1414,-2.1432,-2.1444,-2.1454,-2.1471,-2.1496,-2.1532,-2.1559,-2.1576,-2.1594,-2.1624,-2.1665,-2.1647,-2.1662,-2.1656,-2.1682,-2.1742,-2.166,-2.166,-2.1674,-2.181,-2.1824,-2.1836,-2.1732,-2.1734,-2.1736,-2.1809,0,-2.1486,-2.1549,-2.1542,-2.1603,-2.1631,-2.1611,-2.1643,-2.1657,-2.166,-2.1685,-2.1688,-2.1717,-2.1691,-2.17,-2.1726,-2.173,-2.1769,-2.1724,-2.176,-2.1762,-2.1756,-2.1848,-2.1863,-2.1931,-2.1818,-2.182,-2.1821,0,-2.1579,-2.1599,-2.1662,-2.1675,-2.1687,-2.1715,-2.1739,-2.1763,-2.1779,-2.1779,-2.1795,-2.1785,-2.1822,-2.1788,-2.1839,-2.1808,-2.1823,-2.1827,-2.183,-2.1832,-2.1794,-2.1852,-2.1953,-2.1963,-2.1835,-2.1834,-2.1833,0,-2.1643,-2.1687,-2.173,-2.1739,-2.1755,-2.1776,-2.1784,-2.1797,-2.1814,-2.1834,-2.1845,-2.187,-2.1884,-2.1904,-2.19,-2.1876,-2.1952,-2.1918,-2.1952,-2.1953,-2.1969,-2.1967,-2.2072,-2.1979,-2.1979,-2.1979,-2.1979,0,-2.1724,-2.1763,-2.1758,-2.1785,-2.1828,-2.182,-2.1864,-2.1869,-2.1881,-2.1909,-2.1893,-2.1919,-2.1913,-2.1939,-2.1937,-2.1979,-2.1985,-2.1986,-2.1985,-2.1987,-2.1987,-2.1996,-2.1991,-2.1982,-2.1981,-2.1981,-2.198,0,-2.1802,-2.1801,-2.1847,-2.1858,-2.1862,-2.1893,-2.1903,-2.1928,-2.1929,-2.1964,-2.1971,-2.1974,-2.2003,-2.2002,-2.2036,-2.2034,-2.2086,-2.2079,-2.208,-2.2079,-2.2113,-2.2109,-2.2226,-2.2241,-2.214,-2.214,-2.2141,0,-2.1854,-2.1883,-2.1897,-2.1914,-2.1923,-2.1951,-2.1967,-2.1961,-2.1978,-2.1999,-2.2021,-2.2049,-2.2071,-2.212,-2.2125,-2.215,-2.2144,-2.2183,-2.2148,-2.2149,-2.2144,-2.2142,-2.2144,-2.219,-2.2191,-2.2192,-2.2193,0,-2.1945,-2.1943,-2.1966,-2.199,-2.201,-2.2028,-2.2045,-2.206,-2.2056,-2.2076,-2.2106,-2.2123,-2.2157,-2.2186,-2.221,-2.2218,-2.2205,-2.2204,-2.2213,-2.2215,-2.2214,-2.2215,-2.2098,-2.2201,-2.22,-2.22,-2.2199,-2.2199,-2.2011,-2.2036,-2.205,-2.2077,-2.2089,-2.2105,-2.2129,-2.2133,-2.2157,-2.2184,-2.2179,-2.2213,-2.2228,-2.2259,-2.227,-2.2296,-2.2282,-2.2296,-2.2299,-2.2302,-2.2306,-2.2211,-2.2301,-2.23,-2.23,-2.23,-2.23,0,-2.2101,-2.2109,-2.2134,-2.2157,-2.2179,-2.2164,-2.2182,-2.22,-2.223,-2.2245,-2.2267,-2.2301,-2.2328,-2.2335,-2.2361,-2.2381,-2.2375,-2.2388,-2.2386,-2.2388,-2.2317,-2.2306,-2.2392,-2.2392,-2.2392,-2.2392,-2.2392,-2.2392,-2.215,-2.2192,-2.2191,-2.2238,-2.2246,-2.2278,-2.2289,-2.2304,-2.2316,-2.2354,-2.2377,-2.2381,-2.2393,-2.2419,-2.2444,-2.2445,-2.2455,-2.247,-2.2469,-2.2402,-2.2393,-2.2384,-2.2374,-2.2472,-2.2472,-2.2537,-2.2538,-2.2538]},{"header":{"parameterUnit":"m.s-1","parameterCategory":1,"la1":30.2991,"la2":30.254,"lo1":-89.0895,"lo2":-89.0444,"dy":0.0017,"dx":0.0017,"nx":28,"ny":28,"refTime":"2024-03-28T21:00:00:Z","depth":0,"parameterNumber":3,"parameterNumberName":"V-component_of_WINDS"},"data":[0,0,0,0,0,0,0,0,0,0,0,0,0,0,0,0,0,0,0,0,0,0,0,0,0,0,0,0,0,0,0,0,0,0,0,0,0,0,0,0,0,0,0,0,0,0,0,0,0,0,0,0,0,0,0,0,0,0,4.0978,4.0979,0,4.1012,4.1012,4.1013,4.0958,4.0956,4.0954,4.0952,4.0984,4.0987,4.0989,0,0,0,0,0,0,0,0,0,0,0,0,0,4.0863,4.0865,4.0978,4.0979,4.0979,4.1012,4.1012,4.1013,4.0958,4.0956,4.0954,4.0951,4.0983,4.0986,4.0989,0,0,0,0,0,0,0,0,0,0,0,0,0,4.0907,4.0866,4.0978,4.0956,4.0954,4.1012,4.1012,4.1013,4.0959,4.0956,4.0953,4.095,4.0982,4.0986,4.099,4.107,0,0,4.1002,4.1003,0,0,0,0,0,0,0,0,4.0904,4.0911,4.0959,4.0958,4.0956,4.0978,4.0983,4.1032,4.0959,4.0957,4.0952,4.0949,4.0984,4.0988,4.1,4.1072,4.1073,4.1002,4.1004,4.1006,4.1007,0,0,0,0,0,0,0,4.0901,4.0909,4.0992,4.096,4.0958,4.0943,4.0946,4.0992,4.0986,4.0957,4.0953,4.0958,4.0983,4.0996,4.1,4.1073,4.1002,4.1005,4.1008,4.1009,4.121,4.1213,0,0,0,0,0,0,4.0901,4.0907,4.0991,4.0993,4.0923,4.0947,4.0951,4.0974,4.0985,4.0984,4.096,4.0955,4.0991,4.0996,4.1001,4.1094,4.1006,4.101,4.1012,4.1207,4.1211,4.1214,0,0,0,0,0,0,4.0899,4.0909,4.0989,4.0949,4.0958,4.0952,4.0978,4.0976,4.0989,4.0988,4.0986,4.0976,4.0989,4.0996,4.1053,4.1095,4.1011,4.1015,4.1204,4.1208,4.1212,4.1282,0,0,0,0,0,0,4.0896,4.0909,4.094,4.095,4.096,4.1042,4.0981,4.0978,4.0997,4.099,4.1002,4.1001,4.0987,4.1048,4.1057,4.1098,4.1018,4.12,4.1206,4.1211,4.1276,4.1288,4.1299,0,0,0,0,0,4.0892,4.0958,4.0942,4.0953,4.0999,4.1044,4.105,4.1034,4.1,4.1031,4.1029,4.1,4.1089,4.1054,4.1064,4.1107,4.1197,4.1204,4.121,4.1271,4.1286,4.1298,0,0,0,0,0,0,4.0953,4.0959,4.0941,4.1013,4.1029,4.1035,4.1073,4.1051,4.1076,4.1068,4.1047,4.105,4.1111,4.1115,4.1076,4.1184,4.1137,4.1146,4.1179,4.1194,4.1205,4.1202,4.1021,0,0,0,0,0,4.0975,4.1012,4.1015,4.1078,4.1087,4.1079,4.1098,4.1084,4.1099,4.1105,4.1108,4.1122,4.1153,4.1174,4.1202,4.1277,4.1277,4.1311,4.1323,4.1332,4.134,4.1377,4.1391,4.1236,4.1236,4.1236,0,0,4.102,4.1028,4.1053,4.109,4.1101,4.1138,4.1085,4.1127,4.1153,4.1111,4.1165,4.1168,4.1182,4.1248,4.1277,4.1253,4.1383,4.1341,4.1348,4.1351,4.1385,4.14,4.1413,4.1241,4.124,4.1239,0,0,4.1122,4.1133,4.1185,4.1196,4.1213,4.1207,4.122,4.123,4.123,4.1284,4.1252,4.1283,4.1338,4.1349,4.1362,4.1466,4.144,4.1476,4.1536,4.1572,4.1584,4.1595,4.163,4.1643,4.1484,4.1484,4.1485,0,4.1175,4.1231,4.1214,4.1258,4.1275,4.1239,4.1291,4.1302,4.1327,4.1339,4.1312,4.1378,4.1386,4.1453,4.1478,4.1491,4.1503,4.1474,4.1584,4.1595,4.1604,4.1638,4.1651,4.1489,4.1488,4.1488,4.1487,0,4.1296,4.1335,4.1375,4.14,4.1421,4.1469,4.1458,4.1481,4.1466,4.1462,4.1517,4.1525,4.1553,4.1568,4.1554,4.1633,4.1617,4.1588,4.154,4.1624,4.1654,4.1667,4.1495,4.1493,4.1492,4.1491,0,0,4.1436,4.145,4.1465,4.1475,4.1491,4.152,4.1566,4.1594,4.1613,4.1632,4.1668,4.1714,4.1687,4.1702,4.1688,4.1721,4.18,4.1687,4.1687,4.1706,4.1885,4.1905,4.1921,4.1784,4.1786,4.1788,4.1883,0,4.1535,4.1614,4.1599,4.1675,4.171,4.1676,4.1715,4.1728,4.1726,4.1754,4.1752,4.1784,4.1747,4.1755,4.1786,4.1784,4.1835,4.1777,4.1815,4.1817,4.181,4.1937,4.1959,4.2049,4.1895,4.1897,4.1899,0,4.1661,4.1684,4.1763,4.1772,4.1786,4.1822,4.1845,4.1874,4.1887,4.1883,4.1899,4.1879,4.1922,4.1875,4.1934,4.1894,4.1909,4.191,4.1913,4.1915,4.1861,4.194,4.2077,4.209,4.1918,4.1917,4.1915,0,4.1752,4.1803,4.1857,4.1867,4.1879,4.1904,4.191,4.1921,4.1938,4.1959,4.197,4.1996,4.2009,4.2029,4.2016,4.1983,4.2076,4.2028,4.2072,4.2072,4.2092,4.209,4.2231,4.2105,4.2105,4.2104,4.2104,0,4.1863,4.1912,4.1898,4.1931,4.1985,4.1967,4.2021,4.2023,4.2032,4.2064,4.2036,4.2066,4.2048,4.2076,4.2066,4.2115,4.2122,4.2119,4.2115,4.212,4.212,4.2128,4.212,4.2108,4.2107,4.2107,4.2106,0,4.1973,4.1966,4.2022,4.2028,4.2031,4.207,4.2075,4.2105,4.2101,4.2141,4.2149,4.2143,4.2174,4.2163,4.2198,4.2191,4.2252,4.2242,4.2248,4.2244,4.2288,4.2283,4.2437,4.2456,4.232,4.2321,4.2322,0,4.2044,4.2081,4.2091,4.2111,4.2119,4.2151,4.2168,4.2152,4.2171,4.2189,4.2216,4.2246,4.2268,4.232,4.2317,4.2343,4.2331,4.2383,4.2335,4.2338,4.2329,4.2326,4.2329,4.2392,4.2394,4.2395,4.2396,0,4.2169,4.2163,4.219,4.2215,4.2237,4.2256,4.2273,4.229,4.2275,4.2298,4.233,4.2347,4.2382,4.241,4.2433,4.2438,4.2414,4.2412,4.2423,4.2428,4.2429,4.2426,4.2272,4.2408,4.2407,4.2406,4.2405,4.2405,4.226,4.229,4.2302,4.2332,4.2343,4.2359,4.2387,4.2386,4.2413,4.244,4.2429,4.2465,4.2476,4.2504,4.2512,4.254,4.2519,4.2536,4.254,4.2544,4.2549,4.2426,4.2544,4.2544,4.2543,4.2543,4.2543,0,4.2381,4.2387,4.2415,4.2439,4.2462,4.2439,4.2456,4.2477,4.251,4.2522,4.2545,4.2581,4.2608,4.2608,4.2633,4.2655,4.2645,4.2662,4.2659,4.266,4.2566,4.2553,4.267,4.267,4.267,4.267,4.267,4.267,4.2447,4.2497,4.2493,4.2547,4.2552,4.2588,4.26,4.2613,4.2623,4.2665,4.2687,4.2687,4.2694,4.272,4.2743,4.2742,4.2752,4.2773,4.2768,4.268,4.2667,4.2655,4.2642,4.2776,4.2776,4.2859,4.286,4.286]}]]